Location: *
(35.8942°N, 23.3025°E)
Time: 23:37:03
(UTC+00:00)

SL-16 R/B - Pass Details

Date: 21 September 2021
Orbit: 840 x 850 km, 71.0° (Epoch: 22 October)

Event Time Altitude Azimuth Distance (km) Brightness Sun altitude
Exits shadow 02:09:28 10° 171° (S) 2,450 4.5 -25.5°
Reaches altitude 10° 02:09:28 10° 171° (S) 2,447 4.5 -25.5°
Maximum altitude 02:14:37 38° 104° (ESE) 1,261 3.5 -24.5°
Drops below altitude 10° 02:19:47 10° 38° (NE) 2,466 5.4 -23.5°
Sets 02:22:23 0° 31° (NNE) 3,406 6.1 -23.0°
